DW3835 Weather Reports


Display with metric or nautical units.
time (UTC)temp
F
wind
direction
speed
MPH
gust
MPH
rain 1hr
in
rain 24hr
in
rain mn
in
humidity
%
barometer
mb
20260901214324 68 207 0.0 3.0 0.00 0.00 0.00 61 1014.7
20260901213328 68 202 1.0 4.0 0.00 0.00 0.00 62 1014.7
20260901212310 68 126 0.0 4.0 0.00 0.00 0.00 62 1014.7
20260901211328 68 180 0.0 4.0 0.00 0.00 0.00 63 1014.7
20260901210345 68 152 1.0 4.0 0.00 0.00 0.00 64 1014.7
20260901204220 69 106 1.0 5.0 0.00 0.00 0.00 62 1014.5
20260901203219 69 169 1.0 5.0 0.00 0.00 0.00 59 1014.6
20260901202205 69 215 1.0 8.0 0.00 0.00 0.00 60 1014.7
20260901201212 70 171 1.0 8.0 0.00 0.00 0.00 59 1014.7
20260901200223 70 186 1.0 4.0 0.00 0.00 0.00 61 1014.9
20260901194009 68 138 1.0 6.0 0.00 0.00 0.00 63 1015.0
20260901192952 68 159 0.0 2.0 0.00 0.00 0.00 62 1015.0
20260901190858 67 343 0.0 3.0 0.00 0.00 0.00 65 1015.2
20260901185920 66 161 0.0 3.0 0.00 0.00 0.00 65 1015.3
20260901184916 67 238 1.0 6.0 0.00 0.00 0.00 64 1015.2
20260901183939 67 134 1.0 6.0 0.00 0.00 0.00 64 1015.1
20260901181748 66 133 0.0 2.0 0.00 0.00 0.00 66 1015.1
20260901180730 66 145 0.0 4.0 0.00 0.00 0.00 67 1015.0
20260901175734 67 177 1.0 6.0 0.00 0.00 0.00 65 1015.1
20260901174719 67 175 2.0 8.0 0.00 0.00 0.00 65 1014.9
20260901173715 67 173 1.0 8.0 0.00 0.00 0.00 65 1014.7
20260901172648 66 148 1.0 6.0 0.00 0.00 0.00 67 1014.7
20260901171630 67 181 2.0 6.0 0.00 0.00 0.00 69 1014.7
20260901170614 65 177 1.0 5.0 0.00 0.00 0.00 71 1014.6
20260901165607 64 129 1.0 5.0 0.00 0.00 0.00 70 1014.5
20260901164538 64 164 1.0 5.0 0.00 0.00 0.00 77 1014.4
20260901162509 63 206 1.0 5.0 0.00 0.00 0.00 77 1014.4
20260901161456 63 153 2.0 5.0 0.00 0.00 0.00 77 1014.3
20260901160426 63 171 0.0 4.0 0.00 0.00 0.00 81 1014.3
20260901155442 62 160 0.0 4.0 0.00 0.00 0.00 81 1014.2
20260901154454 62 165 0.0 2.0 0.00 0.00 0.00 82 1014.0
20260901153456 61 124 0.0 3.0 0.00 0.00 0.00 83 1014.0
20260901150207 61 67 0.0 2.0 0.00 0.00 0.00 84 1013.8
20260901145141 61 135 0.0 3.0 0.00 0.00 0.00 84 1013.6
20260901144111 61 159 0.0 3.0 0.00 0.00 0.00 84 1013.5
20260901143119 61 188 0.0 1.0 0.00 0.00 0.00 84 1013.4
20260901142045 61 46 0.0 1.0 0.00 0.00 0.00 83 1013.3
20260901141057 60 152 0.0 1.0 0.00 0.00 0.00 83 1013.1
20260901140057 60 100 0.0 1.0 0.00 0.00 0.00 83 1012.9
20260901135031 60 119 0.0 0.0 0.00 0.00 0.00 84 1012.9
20260901134019 60 165 0.0 0.0 0.00 0.00 0.00 84 1012.9
20260901133018 60 184 0.0 0.0 0.00 0.00 0.00 84 1012.8
20260901132019 60 184 0.0 0.0 0.00 0.00 0.00 84 1012.7
20260901131028 60 197 0.0 0.0 0.00 0.00 0.00 84 1012.6
20260901124842 60 110 0.0 2.0 0.00 0.00 0.00 83 1012.6
20260901123901 60 130 0.0 0.0 0.00 0.00 0.00 83 1012.5
20260901122836 60 166 0.0 3.0 0.00 0.00 0.00 83 1012.4
20260901120706 60 155 0.0 1.0 0.00 0.00 0.00 84 1012.2
20260901115638 60 225 0.0 0.0 0.00 0.00 0.00 84 1012.2
20260901114635 60 313 0.0 2.0 0.00 0.00 0.00 84 1012.3
20260901113605 60 139 0.0 2.0 0.00 0.00 0.00 84 1012.4
20260901112619 61 171 0.0 2.0 0.00 0.00 0.00 83 1012.5
20260901111623 61 121 0.0 2.0 0.00 0.00 0.00 83 1012.5
20260901110616 61 96 0.0 2.0 0.00 0.00 0.00 83 1012.6
20260901105556 60 86 0.0 2.0 0.00 0.00 0.00 83 1012.5
20260901103412 60 138 0.0 3.0 0.00 0.00 0.00 81 1012.3
20260901102347 60 177 0.0 1.0 0.00 0.00 0.00 81 1012.3
20260901100155 60 131 0.0 1.0 0.00 0.00 0.00 81 1012.2
20260901095207 60 319 0.0 2.0 0.00 0.00 0.00 81 1012.2
20260901091957 60 90 0.0 2.0 0.00 0.00 0.00 80 1012.3
20260901085831 60 244 0.0 2.0 0.00 0.00 0.00 80 1012.3
20260901084842 60 84 0.0 3.0 0.00 0.00 0.00 80 1012.3
20260901083813 60 100 0.0 3.0 0.00 0.00 0.00 79 1012.1
20260901082748 60 192 0.0 2.0 0.00 0.00 0.00 80 1012.2
20260901081749 60 91 0.0 2.0 0.00 0.00 0.00 80 1012.2
20260901080753 60 88 0.0 3.0 0.00 0.00 0.00 79 1012.1
20260901075719 60 36 0.0 3.0 0.00 0.00 0.00 79 1012.0
20260901074730 59 75 0.0 3.0 0.00 0.00 0.00 79 1012.0
20260901073703 59 119 0.0 3.0 0.00 0.00 0.00 79 1011.9
20260901072717 59 113 1.0 3.0 0.00 0.00 0.00 79 1012.1
20260901071725 60 169 0.0 3.0 0.00 0.00 0.00 78 1012.2
20260901070748 60 100 0.0 3.0 0.00 0.00 0.00 78 1012.1
20260901065803 60 155 0.0 4.0 0.00 0.00 0.00 78 1012.1
20260901062441 60 164 1.0 6.0 0.00 0.00 0.00 78 1012.2
20260901061408 60 157 0.0 3.0 0.00 0.00 0.00 78 1012.3
20260901060350 60 59 0.0 3.0 0.00 0.00 0.00 79 1012.4
20260901055353 60 114 0.0 3.0 0.00 0.00 0.00 78 1012.4
20260901054325 60 136 0.0 8.0 0.00 0.00 0.00 79 1012.4
20260901045943 60 69 0.0 0.0 0.00 0.00 0.00 77 1012.2
20260901045007 60 188 0.0 3.0 0.00 0.00 0.00 77 1012.2
20260901042813 60 21 1.0 6.0 0.00 0.00 0.00 77 1012.0
20260901041805 60 229 0.0 9.0 0.00 0.00 0.00 76 1012.1
20260901040804 60 180 1.0 9.0 0.00 0.00 0.00 76 1012.0
20260901035744 60 178 0.0 6.0 0.00 0.00 0.00 76 1012.0
20260901034710 60 32 1.0 5.0 0.00 0.00 0.00 76 1011.9
20260901032526 61 66 0.0 4.0 0.00 0.00 0.00 76 1011.6
20260901031541 60 82 1.0 7.0 0.00 0.00 0.00 76 1011.6
20260901030517 61 185 0.0 7.0 0.00 0.00 0.00 75 1011.5
20260901025533 61 184 0.0 5.0 0.00 0.00 0.00 75 1011.4
20260901024520 61 181 0.0 5.0 0.00 0.00 0.00 76 1011.5
20260901021253 61 173 1.0 6.0 0.00 0.00 0.00 75 1011.4
20260901020226 62 107 0.0 6.0 0.00 0.00 0.00 74 1011.5
20260901015203 62 13 0.0 5.0 0.00 0.00 0.00 74 1011.5
20260901014132 62 188 1.0 5.0 0.00 0.00 0.00 74 1011.4
20260901013143 62 235 1.0 7.0 0.00 0.00 0.00 74 1011.4
20260901012144 62 248 1.0 10.0 0.00 0.00 0.00 74 1011.5
20260901011205 62 63 1.0 10.0 0.00 0.00 0.00 74 1011.3
20260901010152 63 65 1.0 4.0 0.00 0.00 0.00 73 1011.4
20260901005136 63 157 1.0 6.0 0.00 0.00 0.00 73 1011.4
20260901004120 64 137 1.0 6.0 0.00 0.00 0.00 74 1011.4
20260901003119 64 146 1.0 8.0 0.00 0.00 0.00 73 1011.4
20260901001027 64 155 1.0 8.0 0.00 0.00 0.00 73 1011.5
20260901000045 64 165 1.0 9.0 0.00 0.00 0.00 74 1011.5
20260831235021 65 129 1.0 9.0 0.00 0.00 0.00 72 1011.6
20260831233957 65 198 0.0 8.0 0.00 0.00 0.00 74 1011.7
20260831232956 64 161 1.0 8.0 0.00 0.00 0.00 73 1011.7
20260831231929 64 188 1.0 6.0 0.00 0.00 0.00 74 1011.6
20260831230908 65 155 1.0 6.0 0.00 0.00 0.00 73 1011.7
20260831224737 65 147 1.0 4.0 0.00 0.00 0.00 75 1011.9
20260831223732 64 179 1.0 5.0 0.00 0.00 0.00 73 1012.0
20260831222708 65 168 1.0 6.0 0.00 0.00 0.00 74 1012.0
20260831221653 64 14 1.0 6.0 0.00 0.00 0.00 74 1012.2
20260831220621 64 336 1.0 4.0 0.00 0.00 0.00 75 1012.2